Location: ????????
(55.6333°N, 37.7000°E)
Time: 14:37:17
(UTC+00:00)

GP-B - Pass Details

Date: 19 May 2025
Orbit: 619 x 624 km, 89.8° (Epoch: 21 June)

Event Time Altitude Azimuth Distance (km) Brightness Sun altitude
Rises 21:30:19 0° 360° (N) 2,921 8.5 -14.4°
Reaches altitude 10° 21:32:32 10° 359° (N) 2,008 7.1 -14.4°
Maximum altitude 21:36:57 78° 274° (W) 645 3.1 -14.4°
Enters shadow 21:39:35 24° 191° (S) 1,305 4.1 -14.3°
